SWR30 LSGG-LFKJ

Flight info

Callsign SWR30
Flight time 1h 14m
Altitude 33000
Route MEDAM1N/04 MEDAM DCT VEVAR DCT BARSO DCT KOLON DCT OMARD M623 VAREK VAREK3S
Aircraft A320/M-SDE3FGHIRWY/LB1

Departure

Time 2026-04-26 12:13
Airport Geneva International Airport (LSGG)

Arrival

Time 2026-04-26 13:27
Airport Ajaccio Napoléon Bonaparte airport (LFKJ)
Time Latitude Longitude Altitude Speed Heading
2026-04-26 11:42 46.23179 6.10577 1404 ft 0 kts
2026-04-26 12:08 46.23222 6.10575 1396 ft 11 kts 348°
2026-04-26 12:08 46.23281 6.10505 1406 ft 12 kts 285°
2026-04-26 12:08 46.23250 6.10427 1395 ft 7 kts 230°
2026-04-26 12:08 46.23195 6.10344 1400 ft 21 kts 225°
2026-04-26 12:09 46.23109 6.10206 1405 ft 15 kts 227°
2026-04-26 12:09 46.23039 6.10101 1409 ft 18 kts 225°
2026-04-26 12:09 46.22920 6.09927 1415 ft 26 kts 226°
2026-04-26 12:09 46.22794 6.09744 1413 ft 25 kts 225°
2026-04-26 12:10 46.22670 6.09562 1418 ft 26 kts 225°
2026-04-26 12:10 46.22577 6.09423 1416 ft 13 kts 231°
2026-04-26 12:10 46.22544 6.09304 1417 ft 16 kts 265°
2026-04-26 12:10 46.22544 6.09239 1417 ft 0 kts 270°
2026-04-26 12:11 46.22550 6.09193 1423 ft 13 kts 288°
2026-04-26 12:11 46.22557 6.09169 1419 ft 0 kts 291°
2026-04-26 12:12 46.22590 6.09131 1417 ft 11 kts
2026-04-26 12:12 46.22633 6.09179 1420 ft 6 kts 40°
2026-04-26 12:12 46.22667 6.09224 1422 ft 12 kts 45°
2026-04-26 12:12 46.22788 6.09407 1421 ft 63 kts 46°
2026-04-26 12:13 46.23514 6.10293 1410 ft 139 kts 37°
2026-04-26 12:13 46.24233 6.11215 2086 ft 127 kts 46°
2026-04-26 12:13 46.24776 6.12137 2865 ft 122 kts 52°
2026-04-26 12:13 46.25336 6.13349 3067 ft 173 kts 57°
2026-04-26 12:14 46.26150 6.14831 3418 ft 200 kts 45°
2026-04-26 12:14 46.27199 6.16317 3824 ft 223 kts 43°
2026-04-26 12:14 46.28379 6.17924 4123 ft 243 kts 43°
2026-04-26 12:14 46.29644 6.19665 4404 ft 256 kts 43°
2026-04-26 12:15 46.30933 6.21479 5057 ft 261 kts 44°
2026-04-26 12:15 46.32228 6.23333 5969 ft 263 kts 44°
2026-04-26 12:15 46.33533 6.25226 6800 ft 268 kts 45°
2026-04-26 12:15 46.34848 6.27160 7625 ft 271 kts 45°
2026-04-26 12:16 46.36016 6.29315 8386 ft 277 kts 65°
2026-04-26 12:16 46.36326 6.31114 8867 ft 282 kts 88°
2026-04-26 12:16 46.35925 6.33891 9662 ft 287 kts 115°
2026-04-26 12:16 46.34740 6.36225 10477 ft 292 kts 138°
2026-04-26 12:17 46.32985 6.37810 10903 ft 311 kts 159°
2026-04-26 12:17 46.30841 6.38785 11119 ft 335 kts 163°
2026-04-26 12:17 46.28528 6.39768 11298 ft 357 kts 163°
2026-04-26 12:17 46.26107 6.40784 11810 ft 366 kts 163°
2026-04-26 12:18 46.23648 6.41817 12494 ft 370 kts 163°
2026-04-26 12:18 46.21163 6.42866 13163 ft 374 kts 163°
2026-04-26 12:18 46.18647 6.43933 13847 ft 378 kts 163°
2026-04-26 12:18 46.16143 6.44998 14437 ft 382 kts 164°
2026-04-26 12:19 46.13576 6.46094 15018 ft 387 kts 164°
2026-04-26 12:19 46.10981 6.47207 15579 ft 391 kts 164°
2026-04-26 12:19 46.08363 6.48327 16150 ft 394 kts 164°
2026-04-26 12:19 46.05724 6.49453 16692 ft 399 kts 165°
2026-04-26 12:20 46.03047 6.50593 17232 ft 403 kts 165°
2026-04-26 12:20 46.00353 6.51740 17821 ft 405 kts 165°
2026-04-26 12:20 45.97634 6.52894 18373 ft 409 kts 165°
2026-04-26 12:20 45.94900 6.54052 18899 ft 411 kts 165°
2026-04-26 12:21 45.92143 6.55217 19378 ft 414 kts 165°
2026-04-26 12:21 45.89369 6.56387 19873 ft 416 kts 165°
2026-04-26 12:21 45.86582 6.57562 20347 ft 419 kts 165°
2026-04-26 12:21 45.83780 6.58743 20823 ft 421 kts 165°
2026-04-26 12:22 45.80955 6.59934 21262 ft 424 kts 165°
2026-04-26 12:22 45.78151 6.61115 21735 ft 427 kts 165°
2026-04-26 12:22 45.75292 6.62316 22217 ft 429 kts 165°
2026-04-26 12:22 45.72423 6.63521 22680 ft 431 kts 165°
2026-04-26 12:23 45.69535 6.64737 23133 ft 434 kts 165°
2026-04-26 12:23 45.66630 6.65957 23577 ft 436 kts 165°
2026-04-26 12:23 45.63713 6.67180 23994 ft 437 kts 165°
2026-04-26 12:23 45.60789 6.68405 24373 ft 439 kts 165°
2026-04-26 12:24 45.57850 6.69634 24741 ft 441 kts 165°
2026-04-26 12:24 45.54907 6.70862 25098 ft 442 kts 165°
2026-04-26 12:24 45.51949 6.72095 25463 ft 444 kts 165°
2026-04-26 12:25 45.46065 6.74883 26151 ft 449 kts 156°
2026-04-26 12:25 45.43324 6.77074 26465 ft 454 kts 147°
2026-04-26 12:25 45.40737 6.79673 26744 ft 456 kts 146°
2026-04-26 12:25 45.38147 6.82290 27067 ft 458 kts 146°
2026-04-26 12:26 45.35542 6.84910 27378 ft 459 kts 147°
2026-04-26 12:26 45.32925 6.87529 27668 ft 461 kts 147°
2026-04-26 12:26 45.30287 6.90145 27965 ft 462 kts 149°
2026-04-26 12:26 45.27482 6.92356 28248 ft 462 kts 158°
2026-04-26 12:27 45.24475 6.93924 28555 ft 460 kts 167°
2026-04-26 12:27 45.21352 6.94813 28952 ft 456 kts 175°
2026-04-26 12:27 45.18235 6.95296 29270 ft 457 kts 176°
2026-04-26 12:27 45.15074 6.95782 29606 ft 457 kts 176°
2026-04-26 12:28 45.11914 6.96272 29960 ft 457 kts 176°
2026-04-26 12:28 45.08750 6.96766 30342 ft 457 kts 176°
2026-04-26 12:28 45.05599 6.97260 30694 ft 455 kts 176°
2026-04-26 12:28 45.02455 6.97752 31051 ft 454 kts 176°
2026-04-26 12:29 44.99318 6.98244 31396 ft 453 kts 176°
2026-04-26 12:29 44.96193 6.98734 31745 ft 451 kts 176°
2026-04-26 12:29 44.89952 6.99709 32370 ft 450 kts 176°
2026-04-26 12:30 44.86845 7.00195 32709 ft 449 kts 176°
2026-04-26 12:30 44.83742 7.00678 33051 ft 448 kts 176°
2026-04-26 12:30 44.80644 7.01041 33141 ft 447 kts 182°
2026-04-26 12:31 44.71419 6.99637 33147 ft 446 kts 190°
2026-04-26 12:31 44.65270 6.98477 33136 ft 446 kts 190°
2026-04-26 12:32 44.59121 6.97325 33147 ft 445 kts 190°
2026-04-26 12:33 44.49940 6.95615 33141 ft 445 kts 190°
2026-04-26 12:33 44.43792 6.94476 33134 ft 445 kts 190°
2026-04-26 12:34 44.37650 6.93339 33130 ft 445 kts 190°
2026-04-26 12:34 44.31497 6.92201 33125 ft 446 kts 190°
2026-04-26 12:35 44.25339 6.91065 33127 ft 446 kts 190°
2026-04-26 12:35 44.19188 6.89929 33127 ft 446 kts 190°
2026-04-26 12:36 44.12988 6.89282 33122 ft 450 kts 179°
2026-04-26 12:36 44.06750 6.90190 33135 ft 452 kts 176°
2026-04-26 12:37 44.00496 6.91134 33124 ft 452 kts 176°
2026-04-26 12:37 43.94233 6.92062 33129 ft 452 kts 176°
2026-04-26 12:38 43.87971 6.92989 33141 ft 453 kts 176°
2026-04-26 12:38 43.81739 6.93907 33139 ft 453 kts 176°
2026-04-26 12:39 43.75485 6.95010 33144 ft 455 kts 169°
2026-04-26 12:39 43.69586 6.98251 33136 ft 461 kts 150°
2026-04-26 12:40 43.64395 7.03505 33151 ft 463 kts 144°
2026-04-26 12:40 43.59251 7.08868 33144 ft 463 kts 145°
2026-04-26 12:41 43.54095 7.14216 33145 ft 464 kts 145°
2026-04-26 12:41 43.48933 7.19563 33152 ft 464 kts 145°
2026-04-26 12:42 43.43766 7.24922 33154 ft 465 kts 145°
2026-04-26 12:42 43.38600 7.30266 33157 ft 465 kts 144°
2026-04-26 12:43 43.33425 7.35591 33159 ft 465 kts 144°
2026-04-26 12:43 43.28240 7.40910 33161 ft 465 kts 144°
2026-04-26 12:44 43.23087 7.46206 33159 ft 465 kts 144°
2026-04-26 12:44 43.17900 7.51519 33157 ft 465 kts 144°
2026-04-26 12:45 43.12706 7.56818 33155 ft 465 kts 146°
2026-04-26 12:45 43.06998 7.60848 33155 ft 461 kts 162°
2026-04-26 12:46 43.00957 7.63831 33150 ft 462 kts 162°
2026-04-26 12:46 42.94910 7.66842 33007 ft 464 kts 161°
2026-04-26 12:46 42.91881 7.68350 32738 ft 464 kts 161°
2026-04-26 12:47 42.88845 7.69858 32482 ft 465 kts 161°
2026-04-26 12:47 42.85801 7.71367 32233 ft 465 kts 161°
2026-04-26 12:47 42.82752 7.72871 31965 ft 466 kts 161°
2026-04-26 12:47 42.79742 7.74355 31711 ft 467 kts 161°
2026-04-26 12:48 42.76687 7.75859 31464 ft 467 kts 161°
2026-04-26 12:48 42.73623 7.77371 31206 ft 468 kts 161°
2026-04-26 12:48 42.70555 7.78883 30951 ft 469 kts 161°
2026-04-26 12:48 42.67481 7.80393 30708 ft 470 kts 161°
2026-04-26 12:49 42.64404 7.81898 30482 ft 471 kts 161°
2026-04-26 12:49 42.61315 7.83406 30229 ft 472 kts 161°
2026-04-26 12:49 42.58221 7.84919 29936 ft 472 kts 161°
2026-04-26 12:49 42.55126 7.86433 28815 ft 476 kts 161°
2026-04-26 12:50 42.51989 7.87966 27556 ft 482 kts 161°
2026-04-26 12:50 42.48829 7.89513 26317 ft 483 kts 161°
2026-04-26 12:50 42.45693 7.91052 25444 ft 472 kts 161°
2026-04-26 12:50 42.42627 7.92552 24658 ft 467 kts 161°
2026-04-26 12:51 42.39583 7.94032 23840 ft 463 kts 161°
2026-04-26 12:51 42.36561 7.95500 22968 ft 460 kts 161°
2026-04-26 12:51 42.33586 7.97028 22216 ft 454 kts 156°
2026-04-26 12:51 42.30867 7.99038 21516 ft 451 kts 147°
2026-04-26 12:52 42.28393 8.01612 20805 ft 447 kts 138°
2026-04-26 12:52 42.26102 8.04429 20104 ft 443 kts 138°
2026-04-26 12:52 42.23834 8.07218 19424 ft 440 kts 138°
2026-04-26 12:52 42.21580 8.09988 18764 ft 436 kts 138°
2026-04-26 12:53 42.19348 8.12724 18085 ft 432 kts 138°
2026-04-26 12:53 42.17137 8.15428 17470 ft 426 kts 138°
2026-04-26 12:53 42.14956 8.18094 16884 ft 419 kts 138°
2026-04-26 12:53 42.12809 8.20714 16328 ft 414 kts 138°
2026-04-26 12:54 42.10691 8.23296 15779 ft 408 kts 138°
2026-04-26 12:54 42.08596 8.25847 15240 ft 403 kts 138°
2026-04-26 12:54 42.06531 8.28363 14704 ft 399 kts 138°
2026-04-26 12:54 42.04483 8.30852 14143 ft 395 kts 138°
2026-04-26 12:55 42.02448 8.33316 13531 ft 392 kts 139°
2026-04-26 12:55 42.00435 8.35752 13050 ft 385 kts 138°
2026-04-26 12:55 41.98487 8.38107 12911 ft 367 kts 140°
2026-04-26 12:55 41.96452 8.40046 12785 ft 351 kts 152°
2026-04-26 12:56 41.94264 8.41340 12659 ft 337 kts 162°
2026-04-26 12:56 41.92025 8.42031 12529 ft 324 kts 173°
2026-04-26 12:56 41.89814 8.42158 12402 ft 313 kts 184°
2026-04-26 12:56 41.87692 8.41989 12214 ft 298 kts 184°
2026-04-26 12:57 41.85680 8.41833 11751 ft 290 kts 184°
2026-04-26 12:57 41.83671 8.41681 11184 ft 287 kts 184°
2026-04-26 12:57 41.81679 8.41533 10780 ft 285 kts 183°
2026-04-26 12:58 41.77737 8.41241 10324 ft 285 kts 183°
2026-04-26 12:58 41.75746 8.41094 10191 ft 287 kts 183°
2026-04-26 12:58 41.73740 8.40948 9788 ft 290 kts 183°
2026-04-26 12:58 41.71750 8.40803 9370 ft 285 kts 183°
2026-04-26 12:59 41.69779 8.40657 8829 ft 281 kts 184°
2026-04-26 12:59 41.67831 8.40757 8431 ft 281 kts 168°
2026-04-26 12:59 41.66006 8.41687 8051 ft 283 kts 148°
2026-04-26 12:59 41.64528 8.43380 7738 ft 280 kts 129°
2026-04-26 13:00 41.63546 8.45624 7466 ft 281 kts 110°
2026-04-26 13:00 41.63138 8.48162 7185 ft 280 kts 91°
2026-04-26 13:00 41.63368 8.50719 6928 ft 277 kts 72°
2026-04-26 13:00 41.64191 8.52971 6751 ft 261 kts 54°
2026-04-26 13:01 41.65199 8.54870 6643 ft 240 kts 54°
2026-04-26 13:01 41.66268 8.56470 6448 ft 224 kts 38°
2026-04-26 13:01 41.67569 8.57516 6321 ft 218 kts 21°
2026-04-26 13:01 41.69043 8.58043 6201 ft 220 kts
2026-04-26 13:02 41.70552 8.58413 6051 ft 220 kts 10°
2026-04-26 13:02 41.72059 8.58789 5889 ft 220 kts 10°
2026-04-26 13:02 41.73568 8.59165 5726 ft 220 kts 10°
2026-04-26 13:02 41.75076 8.59539 5563 ft 220 kts 10°
2026-04-26 13:03 41.76584 8.59913 5401 ft 220 kts 10°
2026-04-26 13:03 41.78090 8.60289 5239 ft 220 kts 10°
2026-04-26 13:03 41.79597 8.60663 5074 ft 220 kts 10°
2026-04-26 13:03 41.81103 8.61037 4910 ft 220 kts 10°
2026-04-26 13:04 41.82610 8.61411 4743 ft 220 kts 10°
2026-04-26 13:04 41.84094 8.61778 4585 ft 219 kts 10°
2026-04-26 13:04 41.85596 8.62148 4419 ft 219 kts 10°
2026-04-26 13:04 41.87095 8.62520 4258 ft 219 kts 10°
2026-04-26 13:05 41.88594 8.62892 4095 ft 219 kts 10°
2026-04-26 13:05 41.90091 8.63264 3938 ft 219 kts 10°
2026-04-26 13:05 41.91588 8.63634 3782 ft 218 kts 10°
2026-04-26 13:05 41.93088 8.64006 3620 ft 220 kts 10°
2026-04-26 13:06 41.94588 8.64380 3443 ft 218 kts 10°
2026-04-26 13:06 41.96064 8.64751 3289 ft 214 kts 11°
2026-04-26 13:06 41.97514 8.65114 3153 ft 209 kts 10°
2026-04-26 13:06 41.98905 8.65502 3077 ft 198 kts 19°
2026-04-26 13:07 41.99679 8.66083 3026 ft 190 kts 41°
2026-04-26 13:07 42.00479 8.68007 2975 ft 174 kts 84°
2026-04-26 13:07 42.00396 8.69550 2975 ft 161 kts 102°
2026-04-26 13:07 42.00204 8.71007 2984 ft 155 kts 102°
2026-04-26 13:08 42.00015 8.72449 2973 ft 161 kts 101°
2026-04-26 13:08 41.99820 8.73935 2902 ft 164 kts 103°
2026-04-26 13:08 41.99686 8.74954 2686 ft 170 kts 101°
2026-04-26 13:08 41.99483 8.76498 2406 ft 165 kts 102°
2026-04-26 13:09 41.99282 8.78021 2117 ft 165 kts 101°
2026-04-26 13:09 41.99089 8.79502 1868 ft 159 kts 104°
2026-04-26 13:09 41.98866 8.80942 1609 ft 155 kts 116°
2026-04-26 13:09 41.98290 8.82059 1367 ft 144 kts 144°
2026-04-26 13:10 41.97427 8.82676 1149 ft 138 kts 171°
2026-04-26 13:10 41.96491 8.82715 933 ft 134 kts 196°
2026-04-26 13:10 41.95631 8.82264 728 ft 132 kts 208°
2026-04-26 13:10 41.94801 8.81742 513 ft 134 kts 207°
2026-04-26 13:11 41.93965 8.81223 308 ft 131 kts 204°
2026-04-26 13:11 41.93140 8.80710 44 ft 130 kts 207°
2026-04-26 13:11 41.92373 8.80177 50 ft 129 kts 211°
2026-04-26 13:11 41.91512 8.79484 545 ft 159 kts 210°
2026-04-26 13:12 41.90396 8.78696 697 ft 208 kts 206°
2026-04-26 13:12 41.88915 8.77762 683 ft 257 kts 207°
2026-04-26 13:12 41.87238 8.76735 1068 ft 265 kts 205°
2026-04-26 13:12 41.85674 8.75757 1298 ft 236 kts 207°
2026-04-26 13:13 41.84236 8.74854 1301 ft 220 kts 206°
2026-04-26 13:13 41.82875 8.73998 1299 ft 212 kts 206°
2026-04-26 13:13 41.81564 8.73108 1302 ft 211 kts 217°
2026-04-26 13:13 41.80404 8.71908 1302 ft 210 kts 219°
2026-04-26 13:14 41.79239 8.70691 1299 ft 213 kts 219°
2026-04-26 13:14 41.78069 8.69471 1304 ft 214 kts 219°
2026-04-26 13:14 41.76895 8.68249 1305 ft 214 kts 218°
2026-04-26 13:14 41.75722 8.67027 1303 ft 214 kts 219°
2026-04-26 13:15 41.74552 8.65810 1342 ft 211 kts 218°
2026-04-26 13:15 41.73384 8.64594 1536 ft 213 kts 218°
2026-04-26 13:15 41.72213 8.63373 1920 ft 214 kts 218°
2026-04-26 13:15 41.71033 8.62143 2333 ft 215 kts 218°
2026-04-26 13:16 41.69849 8.60909 2740 ft 217 kts 218°
2026-04-26 13:16 41.68649 8.59658 2955 ft 219 kts 218°
2026-04-26 13:16 41.67672 8.58168 2990 ft 218 kts 246°
2026-04-26 13:16 41.67513 8.56180 2992 ft 220 kts 283°
2026-04-26 13:17 41.69712 8.53678 2991 ft 225 kts 359°
2026-04-26 13:17 41.71198 8.54249 2991 ft 226 kts 37°
2026-04-26 13:18 41.72964 8.57702 2991 ft 228 kts 52°
2026-04-26 13:18 41.74160 8.59073 2990 ft 228 kts 27°
2026-04-26 13:18 41.77222 8.60085 2989 ft 228 kts
2026-04-26 13:19 41.78783 8.60466 2987 ft 228 kts
2026-04-26 13:19 41.80344 8.60848 2988 ft 228 kts 10°
2026-04-26 13:19 41.81903 8.61235 2986 ft 228 kts 10°
2026-04-26 13:19 41.83464 8.61624 2985 ft 228 kts 10°
2026-04-26 13:20 41.84999 8.62006 2986 ft 228 kts 10°
2026-04-26 13:20 41.86555 8.62392 2986 ft 228 kts 10°
2026-04-26 13:20 41.88114 8.62778 2984 ft 228 kts 10°
2026-04-26 13:20 41.89678 8.63165 2984 ft 229 kts 10°
2026-04-26 13:21 41.91243 8.63555 2969 ft 229 kts 10°
2026-04-26 13:21 41.92268 8.63810 2983 ft 222 kts 10°
2026-04-26 13:21 41.94240 8.64302 2972 ft 210 kts 10°
2026-04-26 13:21 41.95663 8.64658 2989 ft 207 kts 10°
2026-04-26 13:22 41.97073 8.65010 2978 ft 205 kts 10°
2026-04-26 13:22 41.98473 8.65365 2983 ft 205 kts 13°
2026-04-26 13:22 41.99673 8.66194 3002 ft 188 kts 44°
2026-04-26 13:22 42.00344 8.67592 2993 ft 174 kts 74°
2026-04-26 13:23 42.00455 8.69140 2968 ft 161 kts 101°
2026-04-26 13:23 42.00262 8.70599 2975 ft 156 kts 102°
2026-04-26 13:23 42.00075 8.72009 2972 ft 157 kts 102°
2026-04-26 13:23 41.99880 8.73487 2985 ft 161 kts 100°
2026-04-26 13:24 41.99686 8.74965 2845 ft 162 kts 101°
2026-04-26 13:24 41.99486 8.76501 2413 ft 171 kts 102°
2026-04-26 13:24 41.99276 8.78109 2076 ft 174 kts 102°
2026-04-26 13:24 41.99069 8.79694 1815 ft 173 kts 103°
2026-04-26 13:25 41.98780 8.81197 1568 ft 156 kts 123°
2026-04-26 13:25 41.98105 8.82245 1316 ft 144 kts 150°
2026-04-26 13:25 41.97212 8.82733 1088 ft 138 kts 176°
2026-04-26 13:25 41.96276 8.82644 883 ft 135 kts 201°
2026-04-26 13:26 41.95428 8.82143 672 ft 132 kts 207°
2026-04-26 13:26 41.94596 8.81625 461 ft 132 kts 206°
2026-04-26 13:26 41.93783 8.81121 266 ft 132 kts 205°
2026-04-26 13:26 41.92956 8.80604 40 ft 130 kts 207°
2026-04-26 13:27 41.92237 8.80133 21 ft 93 kts 205°
2026-04-26 13:27 41.91739 8.79830 19 ft 69 kts 205°
2026-04-26 13:27 41.91414 8.79635 18 ft 33 kts 203°
2026-04-26 13:27 41.91259 8.79509 19 ft 23 kts 249°
2026-04-26 13:28 41.91336 8.79364 20 ft 20 kts 327°
2026-04-26 13:28 41.91472 8.79344 21 ft 19 kts 19°
2026-04-26 13:28 41.91587 8.79405 21 ft 17 kts 24°
2026-04-26 13:28 41.91663 8.79451 23 ft 0 kts 24°